Location: Erdweis
(48.5167°N, 15.3500°E)
Time: 02:35:44
(UTC+00:00)

COSMOS 2406 - Pass Details

Date: 18 September 2020
Orbit: 844 x 863 km, 71.0° (Epoch: 29 October)

Event Time Altitude Azimuth Distance (km) Brightness Sun altitude
Rises 20:47:41 0° 328° (NNW) 3,414 7.4 -33.2°
Reaches altitude 10° 20:50:12 10° 323° (NW) 2,475 6.5 -33.5°
Enters shadow 20:54:19 40° 288° (WNW) 1,222 4.2 -33.9°
